Time,TemperatureF,DewpointF,PressureIn,WindDirection,WindDirectionDegrees,WindSpeedMPH,WindSpeedGustMPH,Humidity,HourlyPrecipIn,Conditions,Clouds,dailyrainin,SoftwareType,DateUTC
2013-03-15 02:53:00,37.2,26.2,29.00,NE,44,0.0,0.0,64,0.00,,---,0.00,VWS V14.01,2013-03-15 07:53:00,
2013-03-15 02:54:00,37.2,26.2,29.00,NE,44,0.0,0.0,64,0.00,,---,0.00,VWS V14.01,2013-03-15 07:54:00,
2013-03-15 02:55:00,37.2,26.2,29.00,NE,44,0.0,0.0,64,0.00,,---,0.00,VWS V14.01,2013-03-15 07:55:00,
2013-03-15 02:57:00,37.2,26.2,29.00,NE,44,0.0,0.0,64,0.00,,---,0.00,VWS V14.01,2013-03-15 07:57:00,
2013-03-15 03:02:00,37.2,26.2,28.97,NE,44,0.0,0.0,64,0.00,,---,0.00,VWS V14.01,2013-03-15 08:02:00,
2013-03-15 03:08:00,37.0,26.0,28.97,NE,44,0.0,0.0,64,0.00,,---,0.00,VWS V14.01,2013-03-15 08:08:00,
2013-03-15 03:13:00,36.9,26.2,28.97,NE,44,0.0,0.0,65,0.00,,---,0.00,VWS V14.01,2013-03-15 08:13:00,
2013-03-15 03:18:00,36.7,26.0,28.97,NE,44,0.0,0.0,65,0.00,,---,0.00,VWS V14.01,2013-03-15 08:18:00,
2013-03-15 03:24:00,36.5,25.9,28.97,NE,44,0.0,0.0,65,0.00,,---,0.00,VWS V14.01,2013-03-15 08:24:00,
2013-03-15 03:29:00,36.3,25.7,28.97,NE,44,0.0,0.0,65,0.00,,---,0.00,VWS V14.01,2013-03-15 08:29:00,
2013-03-15 03:34:00,36.3,26.1,28.97,NE,44,0.0,0.0,66,0.00,,---,0.00,VWS V14.01,2013-03-15 08:34:00,
2013-03-15 03:39:00,36.3,26.1,28.97,NE,44,0.0,0.0,66,0.00,,---,0.00,VWS V14.01,2013-03-15 08:39:00,
2013-03-15 03:45:00,36.3,26.1,28.97,NE,44,0.0,0.0,66,0.00,,---,0.00,VWS V14.01,2013-03-15 08:45:00,
2013-03-15 03:51:00,36.3,26.1,28.97,NE,44,0.0,0.0,66,0.00,,---,0.00,VWS V14.01,2013-03-15 08:51:00,
2013-03-15 03:56:00,36.1,26.3,28.97,NE,44,0.0,0.0,67,0.00,,---,0.00,VWS V14.01,2013-03-15 08:56:00,
2013-03-15 04:02:00,36.0,26.1,28.94,NE,44,0.0,0.0,67,0.00,,---,0.00,VWS V14.01,2013-03-15 09:02:00,
2013-03-15 04:07:00,35.8,25.9,28.94,NE,44,0.0,0.0,67,0.00,,---,0.00,VWS V14.01,2013-03-15 09:07:00,
2013-03-15 04:13:00,36.1,26.6,28.94,NE,44,0.0,0.0,68,0.00,,---,0.00,VWS V14.01,2013-03-15 09:13:00,
2013-03-15 04:19:00,36.0,26.4,28.94,NE,44,0.0,0.0,68,0.00,,---,0.00,VWS V14.01,2013-03-15 09:19:00,
2013-03-15 04:25:00,35.8,26.6,28.94,NE,44,0.0,0.0,69,0.00,,---,0.00,VWS V14.01,2013-03-15 09:25:00,
2013-03-15 04:30:00,35.6,26.5,28.94,NE,44,0.0,0.0,69,0.00,,---,0.00,VWS V14.01,2013-03-15 09:30:00,
2013-03-15 04:35:00,35.6,26.5,28.94,NE,44,0.0,0.0,69,0.00,,---,0.00,VWS V14.01,2013-03-15 09:35:00,
2013-03-15 04:41:00,35.6,26.5,28.94,NE,44,0.0,0.0,69,0.00,,---,0.00,VWS V14.01,2013-03-15 09:41:00,
2013-03-15 04:48:00,35.6,26.8,28.94,NE,44,0.0,0.0,70,0.00,,---,0.00,VWS V14.01,2013-03-15 09:48:00,
2013-03-15 04:54:00,35.4,26.6,28.94,NE,44,0.0,0.0,70,0.00,,---,0.00,VWS V14.01,2013-03-15 09:54:00,
2013-03-15 04:59:00,35.4,27.0,28.94,NE,44,0.0,0.0,71,0.00,,---,0.00,VWS V14.01,2013-03-15 09:59:00,
2013-03-15 05:05:00,35.2,26.8,28.91,NE,44,0.0,0.0,71,0.00,,---,0.00,VWS V14.01,2013-03-15 10:05:00,
2013-03-15 05:10:00,35.2,26.8,28.91,NE,44,0.0,0.0,71,0.00,,---,0.00,VWS V14.01,2013-03-15 10:10:00,
2013-03-15 05:15:00,35.1,26.6,28.91,NE,44,0.0,0.0,71,0.00,,---,0.00,VWS V14.01,2013-03-15 10:15:00,
2013-03-15 05:20:00,35.1,26.6,28.91,NE,44,0.0,0.0,71,0.00,,---,0.00,VWS V14.01,2013-03-15 10:20:00,
2013-03-15 05:26:00,34.9,26.5,28.91,NE,44,0.0,0.0,71,0.00,,---,0.00,VWS V14.01,2013-03-15 10:26:00,
2013-03-15 05:31:00,34.9,26.5,28.91,NE,44,0.0,0.0,71,0.00,,---,0.00,VWS V14.01,2013-03-15 10:31:00,
2013-03-15 05:36:00,34.7,26.3,28.91,NE,44,0.0,0.0,71,0.00,,---,0.00,VWS V14.01,2013-03-15 10:36:00,
2013-03-15 05:42:00,34.7,26.6,28.91,NE,44,0.0,0.0,72,0.00,,---,0.00,VWS V14.01,2013-03-15 10:42:00,
2013-03-15 05:48:00,34.5,26.4,28.91,NE,44,0.0,0.0,72,0.00,,---,0.00,VWS V14.01,2013-03-15 10:48:00,
2013-03-15 05:54:00,34.5,26.4,28.91,NE,44,0.0,0.0,72,0.00,,---,0.00,VWS V14.01,2013-03-15 10:54:00,
2013-03-15 05:59:00,34.5,26.4,28.91,NE,44,0.0,0.0,72,0.00,,---,0.00,VWS V14.01,2013-03-15 10:59:00,
2013-03-15 06:05:00,34.5,26.4,28.91,NE,44,0.0,0.0,72,0.00,,---,0.00,VWS V14.01,2013-03-15 11:05:00,
2013-03-15 06:10:00,34.3,26.3,28.91,NE,44,0.0,0.0,72,0.00,,---,0.00,VWS V14.01,2013-03-15 11:10:00,
2013-03-15 06:16:00,34.3,26.6,28.91,NE,44,0.0,0.0,73,0.00,,---,0.00,VWS V14.01,2013-03-15 11:16:00,
2013-03-15 06:22:00,34.3,26.6,28.91,NE,44,0.0,0.0,73,0.00,,---,0.00,VWS V14.01,2013-03-15 11:22:00,
2013-03-15 06:27:00,34.5,26.8,28.91,NE,44,0.0,0.0,73,0.00,,---,0.00,VWS V14.01,2013-03-15 11:27:00,
2013-03-15 06:33:00,34.7,27.3,28.91,NE,44,0.0,0.0,74,0.00,,---,0.00,VWS V14.01,2013-03-15 11:33:00,
2013-03-15 06:39:00,34.7,27.3,28.91,NE,44,0.0,0.0,74,0.00,,---,0.00,VWS V14.01,2013-03-15 11:39:00,
2013-03-15 06:45:00,34.9,27.5,28.91,NE,44,0.0,0.0,74,0.00,,---,0.00,VWS V14.01,2013-03-15 11:45:00,
2013-03-15 06:50:00,34.9,27.5,28.88,NE,44,0.0,0.0,74,0.00,,---,0.00,VWS V14.01,2013-03-15 11:50:00,
2013-03-15 06:55:00,34.9,27.5,28.88,NE,44,0.0,0.0,74,0.00,,---,0.00,VWS V14.01,2013-03-15 11:55:00,
2013-03-15 07:01:00,35.1,27.6,28.88,NE,44,0.0,0.0,74,0.00,,---,0.00,VWS V14.01,2013-03-15 12:01:00,
2013-03-15 07:06:00,35.1,27.6,28.88,NE,44,0.0,0.0,74,0.00,,---,0.00,VWS V14.01,2013-03-15 12:06:00,
2013-03-15 07:11:00,35.1,27.6,28.88,NE,44,0.0,0.0,74,0.00,,---,0.00,VWS V14.01,2013-03-15 12:11:00,
2013-03-15 07:16:00,35.1,28.0,28.88,NE,44,0.0,0.0,75,0.00,,---,0.00,VWS V14.01,2013-03-15 12:16:00,
2013-03-15 07:21:00,35.1,28.0,28.88,NE,44,0.0,0.0,75,0.00,,---,0.00,VWS V14.01,2013-03-15 12:21:00,
2013-03-15 07:27:00,35.2,28.1,28.88,NE,44,0.0,0.0,75,0.00,,---,0.00,VWS V14.01,2013-03-15 12:27:00,
2013-03-15 07:32:00,35.2,28.1,28.88,NE,44,0.0,0.0,75,0.00,,---,0.00,VWS V14.01,2013-03-15 12:32:00,
2013-03-15 07:37:00,35.4,28.3,28.88,NE,44,0.0,0.0,75,0.00,,---,0.00,VWS V14.01,2013-03-15 12:37:00,
2013-03-15 07:43:00,35.6,28.5,28.88,NE,44,0.0,0.0,75,0.00,,---,0.00,VWS V14.01,2013-03-15 12:43:00,
2013-03-15 07:48:00,35.8,28.6,28.88,NE,44,0.0,0.0,75,0.00,,---,0.00,VWS V14.01,2013-03-15 12:48:00,
2013-03-15 07:54:00,36.0,28.8,28.88,NE,44,0.0,0.0,75,0.00,,---,0.00,VWS V14.01,2013-03-15 12:54:00,
2013-03-15 07:59:00,36.3,29.5,28.88,NE,44,0.0,0.0,76,0.00,,---,0.00,VWS V14.01,2013-03-15 12:59:00,
2013-03-15 08:04:00,36.9,30.0,28.85,NE,44,0.0,0.0,76,0.00,,---,0.00,VWS V14.01,2013-03-15 13:04:00,
2013-03-15 08:10:00,37.8,31.2,28.85,NE,44,0.0,0.0,77,0.00,,---,0.00,VWS V14.01,2013-03-15 13:10:00,
2013-03-15 08:16:00,39.0,32.8,28.85,NE,44,0.0,0.0,78,0.00,,---,0.00,VWS V14.01,2013-03-15 13:16:00,
2013-03-15 08:22:00,41.4,35.3,28.85,NE,44,0.0,0.0,79,0.00,,---,0.00,VWS V14.01,2013-03-15 13:22:00,
2013-03-15 08:28:00,43.3,37.3,28.85,NE,44,0.0,0.0,79,0.00,,---,0.00,VWS V14.01,2013-03-15 13:28:00,
2013-03-15 08:33:00,45.3,38.9,28.85,SSW,197,0.0,0.0,78,0.00,,---,0.00,VWS V14.01,2013-03-15 13:33:00,
2013-03-15 08:39:00,46.9,39.1,28.85,SSW,213,0.0,0.0,74,0.00,,---,0.00,VWS V14.01,2013-03-15 13:39:00,
2013-03-15 08:45:00,48.2,37.8,28.85,West,262,0.0,0.0,67,0.00,,---,0.00,VWS V14.01,2013-03-15 13:45:00,
2013-03-15 08:50:00,49.1,35.8,28.85,NW,311,0.0,0.0,60,0.00,,---,0.00,VWS V14.01,2013-03-15 13:50:00,
2013-03-15 08:56:00,49.6,33.7,28.85,WSW,250,3.6,3.6,54,0.00,,---,0.00,VWS V14.01,2013-03-15 13:56:00,
2013-03-15 09:01:00,50.2,33.2,28.85,South,177,0.0,0.0,52,0.00,,---,0.00,VWS V14.01,2013-03-15 14:01:00,
2013-03-15 09:07:00,50.7,33.3,28.85,SW,217,0.0,0.0,51,0.00,,---,0.00,VWS V14.01,2013-03-15 14:07:00,
2013-03-15 09:12:00,51.3,33.8,28.85,South,178,0.0,0.0,51,0.00,,---,0.00,VWS V14.01,2013-03-15 14:12:00,
2013-03-15 09:17:00,52.0,33.4,28.82,NNW,327,0.0,0.0,49,0.00,,---,0.00,VWS V14.01,2013-03-15 14:17:00,
2013-03-15 09:22:00,52.9,33.7,28.82,West,262,4.0,4.0,48,0.00,,---,0.00,VWS V14.01,2013-03-15 14:22:00,
2013-03-15 09:28:00,53.6,33.9,28.82,SW,222,0.0,0.0,47,0.00,,---,0.00,VWS V14.01,2013-03-15 14:28:00,
2013-03-15 09:33:00,54.5,34.2,28.82,SW,221,0.0,3.1,46,0.00,,---,0.00,VWS V14.01,2013-03-15 14:33:00,
2013-03-15 09:38:00,55.6,34.6,28.82,SSW,202,0.0,3.1,45,0.00,,---,0.00,VWS V14.01,2013-03-15 14:38:00,
2013-03-15 09:43:00,56.8,35.7,28.82,SSW,192,0.0,0.0,45,0.00,,---,0.00,VWS V14.01,2013-03-15 14:43:00,
2013-03-15 09:49:00,58.1,33.9,28.82,WNW,292,0.0,3.6,40,0.00,,---,0.00,VWS V14.01,2013-03-15 14:49:00,
2013-03-15 09:55:00,59.4,33.1,28.82,South,187,0.0,4.0,37,0.00,,---,0.00,VWS V14.01,2013-03-15 14:55:00,
2013-03-15 10:01:00,60.4,33.4,28.82,WNW,298,3.1,5.4,36,0.00,,---,0.00,VWS V14.01,2013-03-15 15:01:00,
2013-03-15 10:07:00,61.7,33.8,28.82,SSE,159,2.2,2.7,35,0.00,,---,0.00,VWS V14.01,2013-03-15 15:07:00,
2013-03-15 10:12:00,62.6,33.9,28.82,SSE,167,0.0,0.0,34,0.00,,---,0.00,VWS V14.01,2013-03-15 15:12:00,
2013-03-15 10:17:00,63.9,35.0,28.82,NNW,331,0.0,3.6,34,0.00,,---,0.00,VWS V14.01,2013-03-15 15:17:00,
2013-03-15 10:23:00,65.1,35.3,28.82,SSW,212,2.2,3.1,33,0.00,,---,0.00,VWS V14.01,2013-03-15 15:23:00,
2013-03-15 10:29:00,66.4,34.0,28.82,South,186,3.1,5.4,30,0.00,,---,0.00,VWS V14.01,2013-03-15 15:29:00,
2013-03-15 10:34:00,66.9,33.7,28.82,SW,222,0.0,4.0,29,0.00,,---,0.00,VWS V14.01,2013-03-15 15:34:00,
2013-03-15 10:39:00,67.8,33.5,28.82,South,188,2.2,5.8,28,0.00,,---,0.00,VWS V14.01,2013-03-15 15:39:00,
2013-03-15 10:44:00,69.1,33.7,28.82,North,357,3.1,5.8,27,0.00,,---,0.00,VWS V14.01,2013-03-15 15:44:00,
2013-03-15 10:50:00,69.8,32.4,28.79,South,171,3.1,4.0,25,0.00,,---,0.00,VWS V14.01,2013-03-15 15:50:00,
2013-03-15 10:55:00,70.7,34.2,28.79,East,96,2.7,3.6,26,0.00,,---,0.00,VWS V14.01,2013-03-15 15:55:00,
2013-03-15 11:00:00,71.8,34.1,28.79,West,263,3.6,4.9,25,0.00,,---,0.00,VWS V14.01,2013-03-15 16:00:00,
2013-03-15 11:05:00,72.9,34.0,28.79,South,189,0.0,0.0,24,0.00,,---,0.00,VWS V14.01,2013-03-15 16:05:00,
2013-03-15 11:10:00,73.9,33.8,28.79,SSW,192,2.7,3.6,23,0.00,,---,0.00,VWS V14.01,2013-03-15 16:10:00,
2013-03-15 11:16:00,74.7,33.3,28.79,WNW,299,2.7,3.1,22,0.00,,---,0.00,VWS V14.01,2013-03-15 16:16:00,
2013-03-15 11:22:00,75.6,32.9,28.79,SSW,200,2.7,3.6,21,0.00,,---,0.00,VWS V14.01,2013-03-15 16:22:00,
2013-03-15 11:27:00,76.5,33.7,28.79,East,98,3.1,4.0,21,0.00,,---,0.00,VWS V14.01,2013-03-15 16:27:00,
2013-03-15 11:33:00,77.7,33.5,28.79,SW,226,3.1,3.1,20,0.00,,---,0.00,VWS V14.01,2013-03-15 16:33:00,
2013-03-15 11:38:00,78.4,34.1,28.79,SSW,205,3.6,5.4,20,0.00,,---,0.00,VWS V14.01,2013-03-15 16:38:00,
2013-03-15 11:44:00,78.6,31.6,28.79,SW,214,0.0,0.0,18,0.00,,---,0.00,VWS V14.01,2013-03-15 16:44:00,
2013-03-15 11:49:00,79.3,30.8,28.79,SW,232,2.7,5.8,17,0.00,,---,0.00,VWS V14.01,2013-03-15 16:49:00,
2013-03-15 11:54:00,79.7,31.1,28.79,North,357,0.0,6.3,17,0.00,,---,0.00,VWS V14.01,2013-03-15 16:54:00,
2013-03-15 12:00:00,80.1,31.4,28.79,SSE,160,5.8,5.8,17,0.00,,---,0.00,VWS V14.01,2013-03-15 17:00:00,
2013-03-15 12:05:00,80.8,32.0,28.79,West,268,2.7,4.9,17,0.00,,---,0.00,VWS V14.01,2013-03-15 17:05:00,
2013-03-15 12:10:00,81.7,27.9,28.79,WSW,257,2.7,4.0,14,0.00,,---,0.00,VWS V14.01,2013-03-15 17:10:00,
2013-03-15 12:15:00,82.6,28.6,28.77,SW,230,2.2,2.7,14,0.00,,---,0.00,VWS V14.01,2013-03-15 17:15:00,
2013-03-15 12:21:00,82.9,28.9,28.77,SSW,209,3.1,3.1,14,0.00,,---,0.00,VWS V14.01,2013-03-15 17:21:00,
2013-03-15 12:27:00,82.4,28.5,28.77,East,86,0.0,5.4,14,0.00,,---,0.00,VWS V14.01,2013-03-15 17:27:00,
2013-03-15 12:33:00,82.0,24.5,28.77,South,185,3.6,5.8,12,0.00,,---,0.00,VWS V14.01,2013-03-15 17:33:00,
2013-03-15 12:38:00,82.8,23.0,28.77,North,357,3.1,3.1,11,0.00,,---,0.00,VWS V14.01,2013-03-15 17:38:00,
2013-03-15 12:44:00,83.3,23.4,28.77,NE,40,3.1,3.1,11,0.00,,---,0.00,VWS V14.01,2013-03-15 17:44:00,
2013-03-15 12:49:00,84.7,24.5,28.77,WNW,297,3.1,4.5,11,0.00,,---,0.00,VWS V14.01,2013-03-15 17:49:00,
2013-03-15 12:55:00,86.4,25.7,28.77,NE,54,2.7,7.2,11,0.00,,---,0.00,VWS V14.01,2013-03-15 17:55:00,
2013-03-15 13:00:00,86.2,25.6,28.77,West,276,0.0,5.8,11,0.00,,---,0.00,VWS V14.01,2013-03-15 18:00:00,
2013-03-15 13:05:00,85.5,25.0,28.77,South,175,4.9,4.9,11,0.00,,---,0.00,VWS V14.01,2013-03-15 18:05:00,
2013-03-15 13:12:00,85.1,24.7,28.77,WSW,247,3.6,3.6,11,0.00,,---,0.00,VWS V14.01,2013-03-15 18:12:00,
2013-03-15 13:18:00,84.4,24.2,28.74,ESE,123,0.0,0.0,11,0.00,,---,0.00,VWS V14.01,2013-03-15 18:18:00,
2013-03-15 13:23:00,84.0,23.9,28.74,SW,231,3.6,4.0,11,0.00,,---,0.00,VWS V14.01,2013-03-15 18:23:00,
2013-03-15 13:29:00,84.0,23.9,28.74,NE,50,0.0,3.6,11,0.00,,---,0.00,VWS V14.01,2013-03-15 18:29:00,
2013-03-15 13:34:00,85.1,24.7,28.74,ENE,62,2.2,3.1,11,0.00,,---,0.00,VWS V14.01,2013-03-15 18:34:00,
2013-03-15 13:40:00,85.8,25.3,28.74,ENE,64,3.6,5.4,11,0.00,,---,0.00,VWS V14.01,2013-03-15 18:40:00,
2013-03-15 13:45:00,86.5,25.9,28.74,West,265,2.7,2.7,11,0.00,,---,0.00,VWS V14.01,2013-03-15 18:45:00,
2013-03-15 13:51:00,86.0,25.4,28.74,ENE,59,0.0,2.2,11,0.00,,---,0.00,VWS V14.01,2013-03-15 18:51:00,
2013-03-15 13:57:00,86.0,25.4,28.74,SW,232,0.0,0.0,11,0.00,,---,0.00,VWS V14.01,2013-03-15 18:57:00,
2013-03-15 14:02:00,86.2,25.6,28.74,NNE,23,2.2,4.0,11,0.00,,---,0.00,VWS V14.01,2013-03-15 19:02:00,
2013-03-15 14:07:00,86.4,25.7,28.74,East,90,2.2,2.7,11,0.00,,---,0.00,VWS V14.01,2013-03-15 19:07:00,
2013-03-15 14:13:00,86.5,25.9,28.74,SSW,195,3.6,6.7,11,0.00,,---,0.00,VWS V14.01,2013-03-15 19:13:00,
2013-03-15 14:18:00,86.9,26.1,28.71,East,92,3.1,4.0,11,0.00,,---,0.00,VWS V14.01,2013-03-15 19:18:00,
2013-03-15 14:23:00,87.1,26.3,28.71,SW,217,4.9,4.9,11,0.00,,---,0.00,VWS V14.01,2013-03-15 19:23:00,
2013-03-15 14:29:00,87.1,26.3,28.71,SSW,205,4.0,4.0,11,0.00,,---,0.00,VWS V14.01,2013-03-15 19:29:00,
2013-03-15 14:34:00,87.4,26.5,28.71,South,171,4.0,4.5,11,0.00,,---,0.00,VWS V14.01,2013-03-15 19:34:00,
2013-03-15 14:39:00,88.0,24.7,28.71,South,183,0.0,4.0,10,0.00,,---,0.00,VWS V14.01,2013-03-15 19:39:00,
2013-03-15 14:44:00,88.2,24.8,28.71,NNW,341,3.6,4.0,10,0.00,,---,0.00,VWS V14.01,2013-03-15 19:44:00,
2013-03-15 14:50:00,88.0,24.7,28.71,NE,43,0.0,5.4,10,0.00,,---,0.00,VWS V14.01,2013-03-15 19:50:00,
2013-03-15 14:56:00,88.2,24.8,28.71,NW,314,3.6,5.4,10,0.00,,---,0.00,VWS V14.01,2013-03-15 19:56:00,
2013-03-15 15:01:00,88.7,25.2,28.68,NNE,28,0.0,4.0,10,0.00,,---,0.00,VWS V14.01,2013-03-15 20:01:00,
2013-03-15 15:07:00,90.0,26.2,28.68,SW,217,3.1,10.5,10,0.00,,---,0.00,VWS V14.01,2013-03-15 20:07:00,
2013-03-15 15:12:00,90.3,26.4,28.68,South,187,2.2,2.7,10,0.00,,---,0.00,VWS V14.01,2013-03-15 20:12:00,
2013-03-15 15:18:00,90.1,17.9,28.68,SSE,153,0.0,6.3,7,0.00,,---,0.00,VWS V14.01,2013-03-15 20:18:00,
2013-03-15 15:24:00,90.0,26.2,28.68,SE,137,2.7,4.0,10,0.00,,---,0.00,VWS V14.01,2013-03-15 20:24:00,
2013-03-15 15:29:00,89.8,17.6,28.68,NE,56,0.0,3.1,7,0.00,,---,0.00,VWS V14.01,2013-03-15 20:29:00,
2013-03-15 15:35:00,89.8,17.6,28.68,NNE,17,3.1,6.7,7,0.00,,---,0.00,VWS V14.01,2013-03-15 20:35:00,
2013-03-15 15:40:00,89.2,20.3,28.68,NE,41,5.4,5.8,8,0.00,,---,0.00,VWS V14.01,2013-03-15 20:40:00,
2013-03-15 15:46:00,88.9,20.0,28.65,NE,44,4.9,4.9,8,0.00,,---,0.00,VWS V14.01,2013-03-15 20:46:00,
2013-03-15 15:52:00,88.3,19.6,28.65,NE,36,0.0,3.6,8,0.00,,---,0.00,VWS V14.01,2013-03-15 20:52:00,
2013-03-15 15:57:00,88.0,19.4,28.65,ESE,123,4.9,4.9,8,0.00,,---,0.00,VWS V14.01,2013-03-15 20:57:00,
2013-03-15 16:03:00,88.0,19.4,28.65,SSW,201,0.0,5.8,8,0.00,,---,0.00,VWS V14.01,2013-03-15 21:03:00,
2013-03-15 16:08:00,87.8,19.2,28.65,East,81,3.6,3.6,8,0.00,,---,0.00,VWS V14.01,2013-03-15 21:08:00,
2013-03-15 16:13:00,87.1,18.7,28.65,South,185,2.7,3.6,8,0.00,,---,0.00,VWS V14.01,2013-03-15 21:13:00,
2013-03-15 16:19:00,86.7,18.5,28.65,SSW,208,4.9,4.9,8,0.00,,---,0.00,VWS V14.01,2013-03-15 21:19:00,
2013-03-15 16:25:00,86.7,18.5,28.65,NNE,22,0.0,0.0,8,0.00,,---,0.00,VWS V14.01,2013-03-15 21:25:00,
2013-03-15 16:31:00,87.1,18.7,28.65,NNE,31,2.7,3.1,8,0.00,,---,0.00,VWS V14.01,2013-03-15 21:31:00,
2013-03-15 16:36:00,87.1,18.7,28.65,NE,34,2.7,2.7,8,0.00,,---,0.00,VWS V14.01,2013-03-15 21:36:00,
2013-03-15 16:42:00,86.9,18.6,28.65,NE,54,3.6,4.0,8,0.00,,---,0.00,VWS V14.01,2013-03-15 21:42:00,
2013-03-15 16:48:00,86.7,18.5,28.65,NW,314,5.4,7.6,8,0.00,,---,0.00,VWS V14.01,2013-03-15 21:48:00,
2013-03-15 16:53:00,86.7,18.5,28.65,WSW,246,0.0,3.6,8,0.00,,---,0.00,VWS V14.01,2013-03-15 21:53:00,
2013-03-15 16:59:00,86.4,18.2,28.65,SSE,157,3.1,4.0,8,0.00,,---,0.00,VWS V14.01,2013-03-15 21:59:00,
2013-03-15 17:04:00,86.4,18.2,28.65,SW,222,5.8,5.8,8,0.00,,---,0.00,VWS V14.01,2013-03-15 22:04:00,
2013-03-15 17:09:00,86.2,18.0,28.65,East,100,3.6,4.9,8,0.00,,---,0.00,VWS V14.01,2013-03-15 22:09:00,
2013-03-15 17:14:00,85.5,17.5,28.65,SW,233,3.6,5.4,8,0.00,,---,0.00,VWS V14.01,2013-03-15 22:14:00,
2013-03-15 17:19:00,84.9,17.1,28.65,SSW,208,6.7,6.7,8,0.00,,---,0.00,VWS V14.01,2013-03-15 22:19:00,
2013-03-15 17:25:00,84.6,16.9,28.65,ENE,70,0.0,2.7,8,0.00,,---,0.00,VWS V14.01,2013-03-15 22:25:00,
2013-03-15 17:31:00,83.8,19.0,28.62,SE,126,2.2,3.1,9,0.00,,---,0.00,VWS V14.01,2013-03-15 22:31:00,
2013-03-15 17:37:00,83.3,18.6,28.62,WSW,237,2.2,2.2,9,0.00,,---,0.00,VWS V14.01,2013-03-15 22:37:00,
2013-03-15 17:42:00,82.9,18.4,28.62,South,189,3.6,3.6,9,0.00,,---,0.00,VWS V14.01,2013-03-15 22:42:00,
2013-03-15 17:47:00,82.9,18.4,28.62,NE,54,3.6,4.0,9,0.00,,---,0.00,VWS V14.01,2013-03-15 22:47:00,
2013-03-15 17:52:00,82.8,18.2,28.62,NNE,15,0.0,4.9,9,0.00,,---,0.00,VWS V14.01,2013-03-15 22:52:00,
2013-03-15 17:58:00,82.4,18.0,28.62,ENE,74,5.8,5.8,9,0.00,,---,0.00,VWS V14.01,2013-03-15 22:58:00,
2013-03-15 18:03:00,81.9,17.6,28.62,NW,312,3.6,5.4,9,0.00,,---,0.00,VWS V14.01,2013-03-15 23:03:00,
2013-03-15 18:09:00,81.3,17.1,28.62,SSW,209,0.0,0.0,9,0.00,,---,0.00,VWS V14.01,2013-03-15 23:09:00,
2013-03-15 18:14:00,80.4,18.9,28.62,ESE,110,0.0,2.2,10,0.00,,---,0.00,VWS V14.01,2013-03-15 23:14:00,
2013-03-15 18:20:00,79.9,18.5,28.62,SW,224,0.0,0.0,10,0.00,,---,0.00,VWS V14.01,2013-03-15 23:20:00,
2013-03-15 18:25:00,79.0,17.8,28.62,South,185,0.0,3.6,10,0.00,,---,0.00,VWS V14.01,2013-03-15 23:25:00,
2013-03-15 18:31:00,78.6,17.5,28.62,South,189,0.0,0.0,10,0.00,,---,0.00,VWS V14.01,2013-03-15 23:31:00,
2013-03-15 18:37:00,78.1,17.1,28.62,NW,308,0.0,2.7,10,0.00,,---,0.00,VWS V14.01,2013-03-15 23:37:00,
2013-03-15 18:42:00,77.7,16.9,28.62,SSW,213,0.0,0.0,10,0.00,,---,0.00,VWS V14.01,2013-03-15 23:42:00,
2013-03-15 18:48:00,77.2,16.5,28.62,South,176,0.0,3.1,10,0.00,,---,0.00,VWS V14.01,2013-03-15 23:48:00,
2013-03-15 18:54:00,76.6,16.0,28.62,SW,225,0.0,0.0,10,0.00,,---,0.00,VWS V14.01,2013-03-15 23:54:00,
2013-03-15 18:59:00,76.1,15.6,28.62,SW,225,0.0,0.0,10,0.00,,---,0.00,VWS V14.01,2013-03-15 23:59:00,
2013-03-15 19:04:00,75.4,15.1,28.62,South,179,0.0,0.0,10,0.00,,---,0.00,VWS V14.01,2013-03-16 00:04:00,
2013-03-15 19:10:00,74.8,16.9,28.62,SW,214,0.0,0.0,11,0.00,,---,0.00,VWS V14.01,2013-03-16 00:10:00,
2013-03-15 19:15:00,74.7,16.7,28.62,ESE,105,0.0,0.0,11,0.00,,---,0.00,VWS V14.01,2013-03-16 00:15:00,
2013-03-15 19:20:00,73.9,16.1,28.62,SW,227,0.0,0.0,11,0.00,,---,0.00,VWS V14.01,2013-03-16 00:20:00,
2013-03-15 19:26:00,73.4,15.7,28.62,SSW,198,0.0,0.0,11,0.00,,---,0.00,VWS V14.01,2013-03-16 00:26:00,
2013-03-15 19:32:00,72.9,15.3,28.62,SW,234,0.0,0.0,11,0.00,,---,0.00,VWS V14.01,2013-03-16 00:32:00,
2013-03-15 19:38:00,72.3,20.5,28.62,SSW,197,0.0,0.0,14,0.00,,---,0.00,VWS V14.01,2013-03-16 00:38:00,
2013-03-15 19:44:00,71.8,20.1,28.62,SSW,195,0.0,0.0,14,0.00,,---,0.00,VWS V14.01,2013-03-16 00:44:00,
2013-03-15 19:49:00,71.4,19.8,28.62,NNW,341,0.0,3.6,14,0.00,,---,0.00,VWS V14.01,2013-03-16 00:49:00,
2013-03-15 19:55:00,71.4,19.8,28.62,WSW,249,0.0,0.0,14,0.00,,---,0.00,VWS V14.01,2013-03-16 00:55:00,
2013-03-15 20:01:00,71.2,19.6,28.62,SW,215,0.0,2.2,14,0.00,,---,0.00,VWS V14.01,2013-03-16 01:01:00,
2013-03-15 20:06:00,70.7,19.2,28.62,SSW,211,0.0,0.0,14,0.00,,---,0.00,VWS V14.01,2013-03-16 01:06:00,
2013-03-15 20:12:00,70.2,18.8,28.62,WSW,257,0.0,0.0,14,0.00,,---,0.00,VWS V14.01,2013-03-16 01:12:00,
2013-03-15 20:17:00,70.0,18.6,28.62,SW,214,0.0,0.0,14,0.00,,---,0.00,VWS V14.01,2013-03-16 01:17:00,
2013-03-15 20:22:00,69.6,20.0,28.62,South,187,0.0,0.0,15,0.00,,---,0.00,VWS V14.01,2013-03-16 01:22:00,
2013-03-15 20:27:00,69.4,19.8,28.62,South,177,0.0,0.0,15,0.00,,---,0.00,VWS V14.01,2013-03-16 01:27:00,
2013-03-15 20:33:00,69.3,19.7,28.62,WSW,240,0.0,2.7,15,0.00,,---,0.00,VWS V14.01,2013-03-16 01:33:00,
2013-03-15 20:39:00,68.5,22.0,28.62,NW,315,0.0,0.0,17,0.00,,---,0.00,VWS V14.01,2013-03-16 01:39:00,
2013-03-15 20:44:00,68.2,21.7,28.62,NW,324,0.0,2.7,17,0.00,,---,0.00,VWS V14.01,2013-03-16 01:44:00,
2013-03-15 20:50:00,68.0,21.6,28.62,NNW,335,0.0,0.0,17,0.00,,---,0.00,VWS V14.01,2013-03-16 01:50:00,
2013-03-15 20:55:00,67.8,25.3,28.62,West,274,2.2,4.0,20,0.00,,---,0.00,VWS V14.01,2013-03-16 01:55:00,
2013-03-15 21:01:00,67.5,27.3,28.62,SSW,207,2.2,4.9,22,0.00,,---,0.00,VWS V14.01,2013-03-16 02:01:00,
2013-03-15 21:07:00,67.3,27.2,28.62,SSW,197,3.1,4.0,22,0.00,,---,0.00,VWS V14.01,2013-03-16 02:07:00,
2013-03-15 21:12:00,67.5,28.4,28.62,SW,235,0.0,3.6,23,0.00,,---,0.00,VWS V14.01,2013-03-16 02:12:00,
2013-03-15 21:17:00,67.6,28.5,28.62,SSW,198,3.1,3.1,23,0.00,,---,0.00,VWS V14.01,2013-03-16 02:17:00,
2013-03-15 21:23:00,67.5,28.4,28.62,SSW,196,3.6,4.0,23,0.00,,---,0.00,VWS V14.01,2013-03-16 02:23:00,
2013-03-15 21:29:00,67.3,28.2,28.62,SW,223,0.0,2.7,23,0.00,,---,0.00,VWS V14.01,2013-03-16 02:29:00,
2013-03-15 21:35:00,67.1,29.1,28.62,SSW,206,0.0,3.1,24,0.00,,---,0.00,VWS V14.01,2013-03-16 02:35:00,
2013-03-15 21:40:00,66.9,29.0,28.62,WNW,297,0.0,0.0,24,0.00,,---,0.00,VWS V14.01,2013-03-16 02:40:00,
2013-03-15 21:46:00,66.6,28.7,28.62,South,186,2.2,3.1,24,0.00,,---,0.00,VWS V14.01,2013-03-16 02:46:00,
2013-03-15 21:51:00,66.4,28.5,28.62,NNW,341,3.1,3.1,24,0.00,,---,0.00,VWS V14.01,2013-03-16 02:51:00,
2013-03-15 21:57:00,66.0,29.2,28.62,East,93,0.0,0.0,25,0.00,,---,0.00,VWS V14.01,2013-03-16 02:57:00,
2013-03-15 22:02:00,65.3,28.6,28.65,ENE,73,0.0,0.0,25,0.00,,---,0.00,VWS V14.01,2013-03-16 03:02:00,
2013-03-15 22:07:00,64.8,29.1,28.65,ESE,118,2.7,3.6,26,0.00,,---,0.00,VWS V14.01,2013-03-16 03:07:00,
2013-03-15 22:12:00,64.6,29.9,28.65,NE,47,3.6,3.6,27,0.00,,---,0.00,VWS V14.01,2013-03-16 03:12:00,
2013-03-15 22:18:00,64.4,29.7,28.68,SSE,152,0.0,0.0,27,0.00,,---,0.00,VWS V14.01,2013-03-16 03:18:00,
2013-03-15 22:23:00,64.0,29.4,28.68,SW,218,0.0,0.0,27,0.00,,---,0.00,VWS V14.01,2013-03-16 03:23:00,
2013-03-15 22:29:00,63.5,29.8,28.68,SW,218,0.0,0.0,28,0.00,,---,0.00,VWS V14.01,2013-03-16 03:29:00,
2013-03-15 22:35:00,63.1,29.5,28.68,NNW,328,0.0,0.0,28,0.00,,---,0.00,VWS V14.01,2013-03-16 03:35:00,
2013-03-15 22:40:00,62.8,29.2,28.68,NNW,328,0.0,0.0,28,0.00,,---,0.00,VWS V14.01,2013-03-16 03:40:00,
2013-03-15 22:46:00,62.4,29.8,28.68,NNW,344,0.0,0.0,29,0.00,,---,0.00,VWS V14.01,2013-03-16 03:46:00,
2013-03-15 22:52:00,62.2,30.5,28.68,NNW,344,0.0,0.0,30,0.00,,---,0.00,VWS V14.01,2013-03-16 03:52:00,
2013-03-15 22:57:00,61.9,30.1,28.68,NNW,344,0.0,0.0,30,0.00,,---,0.00,VWS V14.01,2013-03-16 03:57:00,
2013-03-15 23:00:00,61.5,29.8,28.68,NNW,344,0.0,0.0,30,0.00,,---,0.00,VWS V14.01,2013-03-16 04:00:00,
2013-03-15 23:01:00,61.2,29.5,28.68,NNW,344,0.0,0.0,30,0.00,,---,0.00,VWS V14.01,2013-03-16 04:01:00,
2013-03-15 23:07:00,60.6,29.8,28.68,NNW,344,0.0,0.0,31,0.00,,---,0.00,VWS V14.01,2013-03-16 04:07:00,
2013-03-15 23:10:00,60.3,30.3,28.68,NNW,344,0.0,0.0,32,0.00,,---,0.00,VWS V14.01,2013-03-16 04:10:00,
2013-03-15 23:15:00,59.7,31.3,28.68,NNW,344,0.0,0.0,34,0.00,,---,0.00,VWS V14.01,2013-03-16 04:15:00,
2013-03-15 23:21:00,59.4,31.0,28.68,NNW,344,0.0,0.0,34,0.00,,---,0.00,VWS V14.01,2013-03-16 04:21:00,
2013-03-15 23:27:00,58.6,31.1,28.68,North,357,4.5,4.5,35,0.00,,---,0.00,VWS V14.01,2013-03-16 04:27:00,
2013-03-15 23:32:00,59.2,31.6,28.68,NNE,16,0.0,5.8,35,0.00,,---,0.00,VWS V14.01,2013-03-16 04:32:00,
2013-03-15 23:37:00,59.4,31.0,28.68,NNE,19,0.0,0.0,34,0.00,,---,0.00,VWS V14.01,2013-03-16 04:37:00,
2013-03-15 23:43:00,59.2,30.9,28.68,ENE,60,0.0,4.9,34,0.00,,---,0.00,VWS V14.01,2013-03-16 04:43:00,
2013-03-15 23:48:00,59.2,31.6,28.68,NE,41,6.3,6.3,35,0.00,,---,0.00,VWS V14.01,2013-03-16 04:48:00,
2013-03-15 23:53:00,59.0,31.4,28.68,NE,51,3.1,6.3,35,0.00,,---,0.00,VWS V14.01,2013-03-16 04:53:00,
2013-03-15 23:58:00,58.5,30.9,28.68,NE,41,2.7,2.7,35,0.00,,---,0.00,VWS V14.01,2013-03-16 04:58:00,